GFSWCAN_700_spd_102.txt.gz
Wind_Speed
26 19 17 17 13 12 16 20 21 22 21 20 19 17 15 13 14 13 8 9 10 12 14 12 9 5 6 6 9 12 7 9 5 6 6 6 5 7 6 8 11 9 10 9 10 7 4 13 5 2 4 4 5 6
29 27 25 22 20 15 15 17 20 19 20 20 18 16 14 13 13 13 10 9 11 9 7 9 9 6 9 7 10 3 6 8 7 5 6 5 4 5 8 5 9 7 9 3 6 3 8 10 10 6 2 2 2 4
29 32 26 22 21 17 15 13 16 19 20 18 17 15 13 13 13 13 12 9 9 8 6 9 10 12 7 8 8 3 3 6 5 6 7 7 4 8 6 6 5 7 7 6 6 5 6 7 5 4 3 5 2 6
27 23 28 27 22 19 18 15 16 18 18 18 17 15 14 13 12 13 12 8 10 5 4 1 6 8 8 6 3 5 7 9 6 6 5 7 6 3 7 6 4 6 6 2 4 3 5 5 4 4 3 3 5 6
30 28 25 26 26 25 23 19 19 18 18 18 17 17 14 13 12 12 11 7 9 7 6 6 8 7 6 5 7 7 8 9 5 7 5 7 8 8 6 5 5 5 5 1 2 4 2 1 2 4 5 5 7 7
28 27 26 25 27 26 23 24 22 19 18 18 19 17 14 14 13 13 12 7 8 11 8 5 5 4 6 9 11 11 10 8 8 6 7 7 6 7 4 5 3 3 5 4 3 4 4 3 4 5 5 5 6 9
28 29 26 25 23 22 22 22 20 18 19 20 19 16 15 16 15 13 9 7 8 10 7 5 4 5 5 6 8 11 9 8 8 7 8 8 9 8 7 5 4 6 6 5 4 5 4 5 7 8 8 9 10 12
29 27 26 25 22 21 21 22 21 19 19 19 18 16 17 17 16 16 16 8 6 7 8 4 6 8 8 9 4 5 5 8 7 8 8 6 6 5 3 7 6 4 3 4 4 6 8 10 11 12 14 15 16 15
29 30 25 23 21 19 22 23 21 21 22 21 19 17 17 17 17 19 15 12 8 10 4 6 8 7 2 3 3 3 5 6 5 7 4 3 4 4 7 6 6 6 7 10 12 15 15 15 15 15 16 16 17 17
37 29 27 24 20 19 19 20 23 24 24 23 20 18 14 15 16 17 16 14 12 10 16 17 12 10 7 5 5 5 4 4 5 5 4 6 9 14 12 14 17 18 19 19 20 17 14 15 16 16 16 16 16 17
39 35 32 26 21 20 20 22 25 25 26 28 26 16 12 12 13 12 11 11 9 8 14 16 15 11 8 7 8 3 2 2 3 3 3 2 7 9 11 11 12 12 13 13 13 13 13 14 14 15 16 17 18 19
39 37 31 26 24 22 20 23 26 26 27 32 22 13 13 15 9 9 11 9 8 10 11 8 7 11 8 7 2 1 4 3 3 1 2 2 4 5 6 6 6 6 7 8 10 11 14 15 17 17 17 14 13 13
34 34 30 28 26 22 22 23 28 25 28 29 23 19 15 12 10 11 14 12 12 8 6 7 12 11 10 8 4 3 2 3 3 2 3 5 5 7 8 7 6 6 8 10 13 14 15 13 10 10 12 13 15 16
31 33 29 28 25 23 21 23 28 25 35 24 14 12 12 10 10 8 16 15 14 10 5 3 8 9 9 7 3 2 3 2 2 2 5 4 6 7 5 6 7 9 12 13 10 8 8 10 12 14 16 18 19 21
30 30 28 26 23 21 21 25 28 35 34 14 8 9 14 10 12 13 7 12 10 8 7 4 7 6 10 4 3 3 2 3 3 5 5 7 8 9 8 10 12 12 9 7 7 9 12 14 16 17 19 20 21 23
31 30 27 25 23 23 27 26 30 36 33 6 7 9 17 15 15 14 10 10 10 10 8 6 6 5 6 4 4 4 3 3 3 5 8 9 11 9 9 11 9 6 7 9 11 13 15 18 20 21 22 23 23 24
31 27 27 24 24 29 28 26 33 31 17 6 7 14 22 17 13 9 11 8 9 11 12 6 6 5 4 4 4 5 6 6 8 9 10 9 9 10 11 7 7 8 10 12 15 17 19 20 22 23 23 22 24 23
27 24 24 27 30 32 27 26 32 10 9 5 13 15 21 19 15 9 8 10 8 9 12 8 5 5 4 4 7 6 6 7 9 11 11 10 9 6 6 7 9 11 14 16 18 20 21 23 25 26 26 26 25 27
25 23 29 29 30 26 24 36 17 9 12 9 13 13 15 15 14 11 9 9 7 6 10 9 5 7 11 9 7 7 9 11 11 11 10 6 4 5 7 9 12 14 16 19 21 22 23 23 23 24 25 26 26 26
23 28 32 31 25 18 15 24 14 8 15 12 12 13 13 11 9 8 10 12 11 10 13 14 16 7 7 8 8 7 9 10 11 8 5 4 6 8 10 12 14 17 19 20 21 22 23 25 27 26 25 25 26 26
29 34 33 32 25 14 17 14 24 9 6 10 13 12 10 12 15 13 9 12 13 15 16 15 14 14 11 9 8 10 11 10 7 5 5 6 8 9 11 14 17 19 20 21 23 25 24 25 26 27 27 28 27 26
32 36 37 30 19 16 14 12 22 18 13 11 12 15 14 13 18 18 11 13 14 13 12 12 12 15 18 17 15 12 11 9 7 6 7 8 9 10 13 16 18 19 20 23 24 26 27 28 27 28 29 29 27 27
37 33 33 29 16 17 16 15 17 22 14 12 14 13 14 12 16 17 16 19 20 16 16 14 15 16 13 13 13 12 11 10 9 9 9 10 11 13 15 17 18 20 23 26 26 27 28 28 29 27 27 27 26 26
37 38 32 25 13 11 15 22 22 25 29 22 14 17 18 19 14 16 20 20 16 15 17 16 16 15 15 14 14 13 13 11 10 10 10 11 12 14 17 18 20 22 24 27 28 28 29 29 28 27 27 26 26 25
31 26 16 22 23 12 16 16 28 27 28 29 27 20 18 16 15 19 23 27 21 20 17 19 19 18 18 17 14 13 13 12 11 11 11 11 14 16 18 20 21 24 26 28 29 29 28 27 26 26 25 25 24 25
7 8 13 17 26 24 19 21 23 27 30 28 26 25 20 15 13 10 21 21 20 21 20 18 18 18 18 16 15 15 14 13 12 12 12 13 15 18 20 23 26 26 26 27 27 26 26 26 25 25 25 25 25 24
14 9 20 25 24 28 26 23 21 22 24 21 25 24 21 13 12 20 21 18 19 21 21 21 21 21 19 16 14 14 14 13 12 12 13 14 17 19 21 24 26 27 28 28 27 26 25 26 26 25 24 25 25 26
4 6 12 16 19 23 24 24 24 22 25 21 20 19 14 16 22 19 17 18 17 22 22 23 22 19 16 17 16 15 13 13 13 13 14 16 18 20 23 25 27 27 27 26 26 25 26 25 25 25 26 26 27 28
5 5 10 12 15 18 18 21 21 22 21 25 24 27 25 24 19 14 16 18 18 21 22 19 17 17 18 17 16 15 14 14 13 13 15 17 19 22 24 25 26 26 26 25 25 25 26 26 26 27 28 29 29 30
7 7 10 13 15 14 15 15 15 13 16 17 16 20 20 18 16 15 13 15 18 20 22 22 21 20 18 17 16 15 14 13 12 14 16 19 22 24 25 25 26 26 25 26 26 26 26 27 28 29 30 31 32 33
10 11 11 11 13 13 10 13 14 13 14 18 18 20 19 16 15 14 13 16 18 21 23 23 21 19 18 17 15 14 12 12 12 15 18 21 23 24 24 25 25 25 25 25 26 27 27 28 30 31 33 34 35 36
14 12 12 11 10 11 13 13 13 14 13 16 17 18 20 18 15 13 13 15 19 22 22 21 19 17 17 17 14 13 11 11 13 16 19 22 22 23 24 24 24 25 25 26 27 27 29 31 32 34 35 34 34 35
16 16 16 14 12 12 12 13 14 14 13 14 16 18 20 19 17 16 16 17 19 19 18 18 18 17 16 15 13 11 10 11 14 18 20 21 22 23 23 23 23 24 26 26 27 29 31 33 33 33 33 34 34 35

GFSWCAN_700_spd_105.txt.gz
Wind_Speed
22 21 17 21 18 17 19 21 22 23 23 22 21 19 17 16 15 14 11 9 9 8 12 14 10 7 5 7 11 11 4 8 7 6 6 6 5 9 12 13 11 13 8 10 7 6 4 15 4 3 8 4 6 7
23 21 17 16 15 14 16 18 20 21 21 21 19 18 17 15 15 13 10 7 6 5 5 9 9 7 4 8 6 6 3 5 6 6 5 5 5 9 11 6 12 8 10 5 5 6 10 12 13 9 5 6 4 5
21 24 19 17 16 12 12 14 18 18 19 18 18 18 17 15 14 13 10 6 5 4 3 4 7 8 6 4 3 2 3 2 4 6 6 5 3 8 8 9 6 7 10 7 4 7 7 8 7 5 6 5 3 5
25 25 25 21 17 16 14 13 14 16 16 17 18 17 16 15 13 11 9 6 5 5 5 4 2 2 3 2 1 2 7 6 5 4 3 4 3 4 7 8 7 6 6 3 4 5 5 6 6 5 3 2 3 3
23 20 19 21 19 16 15 14 12 15 16 17 18 17 16 14 13 11 10 6 8 6 4 3 4 4 5 3 4 5 6 6 6 5 5 4 4 5 5 4 0 4 6 2 1 5 5 4 3 3 2 1 2 4
25 23 19 20 22 18 15 13 11 14 15 16 17 17 16 14 13 12 11 8 9 8 4 3 5 1 2 3 7 11 11 8 5 6 6 5 2 3 3 4 4 5 6 5 4 3 2 2 1 2 3 4 4 7
26 25 23 21 22 24 20 16 14 15 15 16 17 18 15 14 13 14 12 10 8 8 4 2 2 3 3 3 8 8 7 6 5 6 5 4 4 3 2 3 3 5 2 1 2 2 1 2 3 5 6 9 9 11
26 26 26 23 22 20 20 17 17 16 16 16 17 15 14 14 14 13 12 10 9 9 5 1 2 2 4 6 3 3 3 3 5 6 4 1 4 2 3 3 3 2 0 1 0 3 6 10 10 9 10 13 12 11
27 25 25 23 22 18 16 17 18 18 17 17 16 15 14 14 14 14 16 11 12 10 5 5 4 1 4 1 1 2 2 2 3 2 2 4 4 4 3 5 3 6 6 7 10 12 13 14 12 12 12 14 14 14
27 24 23 22 20 18 17 17 20 21 20 19 17 12 10 12 13 17 15 12 10 12 13 9 5 3 4 4 3 2 2 1 2 2 4 3 6 7 7 10 12 14 15 16 17 15 11 9 8 10 11 12 13 15
29 26 24 21 20 19 17 19 22 21 22 20 16 15 14 15 16 15 9 9 8 7 9 11 11 12 6 5 5 3 1 0 2 3 3 2 5 4 6 8 11 12 10 9 9 9 10 11 11 11 13 14 13 12
33 29 24 23 20 17 16 17 22 23 22 22 23 17 14 16 8 7 7 7 7 9 9 6 4 9 10 8 6 6 4 3 3 5 3 3 4 3 5 6 6 5 6 5 6 8 11 13 13 11 9 10 11 13
39 32 28 23 20 18 16 16 23 22 21 30 21 15 14 10 10 10 11 11 11 6 3 3 6 7 9 7 3 2 3 2 2 2 2 4 2 4 4 4 4 4 5 8 10 11 9 7 9 11 13 15 16 18
33 36 29 25 22 20 17 23 26 23 28 27 13 11 11 7 8 9 17 15 14 10 5 2 8 10 8 9 3 2 2 2 2 3 5 1 2 4 3 4 5 7 10 10 7 7 8 10 12 14 16 17 18 19
32 32 29 26 23 20 18 22 29 28 26 15 9 6 13 8 14 11 8 11 12 8 8 5 8 8 12 4 4 3 2 2 3 5 1 4 5 6 6 6 8 10 8 6 7 9 12 14 15 17 18 18 19 21
32 31 29 27 24 21 20 22 29 30 26 10 9 5 15 13 17 15 11 11 12 11 10 8 7 5 6 4 4 3 2 4 1 2 5 7 7 6 6 8 7 5 6 9 11 12 14 16 17 18 19 21 22 23
34 33 30 26 24 20 18 23 27 30 19 8 4 6 15 18 14 11 12 11 12 13 11 6 4 5 4 5 4 5 5 3 5 5 6 7 7 7 6 4 5 7 8 10 13 15 17 18 20 21 21 21 22 23
30 29 28 27 24 25 24 23 22 17 21 15 6 11 18 20 17 13 14 11 11 11 13 8 5 7 4 5 6 1 3 4 5 7 7 8 8 4 3 4 6 9 11 13 16 18 20 22 24 25 26 25 26 29
27 27 25 24 22 31 28 24 19 17 23 23 8 16 18 16 15 11 10 10 9 9 11 9 4 7 9 6 6 5 6 8 9 9 9 7 3 3 4 6 9 11 13 16 18 19 20 23 25 25 26 26 27 29
20 20 20 23 26 24 13 21 17 11 18 24 11 18 19 15 13 12 10 10 11 10 10 9 12 7 4 6 7 7 6 6 8 9 6 4 3 4 6 8 10 12 14 17 19 22 24 26 27 28 27 27 26 26
22 28 31 33 22 16 8 28 12 11 19 12 11 13 13 12 11 10 9 9 13 15 13 11 9 11 12 9 8 7 8 10 10 7 5 4 4 6 8 9 11 14 17 19 20 23 25 26 28 28 29 29 27 27
31 37 35 29 20 14 10 27 17 9 10 7 10 12 12 12 11 14 14 13 14 14 10 6 7 10 12 14 14 14 14 11 8 7 6 5 6 8 9 11 13 15 18 20 23 26 27 27 28 28 29 29 28 27
33 32 30 24 7 8 13 16 22 22 12 8 9 10 12 15 12 11 16 19 16 12 12 11 12 13 14 13 13 12 13 11 9 9 7 8 8 9 10 12 16 19 21 22 24 26 28 28 27 27 27 26 26 26
31 31 31 14 7 12 14 19 20 18 20 19 14 11 12 11 9 10 17 21 16 15 15 15 15 14 14 14 14 13 12 10 11 10 10 9 9 10 11 14 17 20 22 25 26 28 29 29 28 27 27 26 26 26
27 24 11 15 14 11 16 22 25 25 23 22 24 25 17 11 12 18 20 18 17 18 18 15 14 15 14 15 15 14 12 12 12 12 11 10 11 12 13 16 18 20 23 25 27 29 30 28 28 27 27 27 26 25
19 11 13 11 21 12 15 19 21 25 23 21 18 22 21 19 15 10 18 14 12 17 20 19 18 17 17 15 16 15 13 11 12 13 12 12 12 14 16 18 19 21 24 26 27 28 27 27 27 27 26 26 26 26
14 9 23 19 22 27 25 19 15 17 20 19 21 22 18 12 13 22 23 19 16 14 17 19 20 21 17 13 12 13 13 13 13 13 13 13 13 15 18 21 24 26 27 27 28 28 27 27 27 27 27 27 28 29
8 11 13 17 25 25 26 26 26 25 23 20 18 17 13 15 21 22 17 16 14 17 18 20 20 19 14 14 17 16 14 14 14 13 12 12 14 16 19 23 25 26 27 28 27 27 27 27 27 28 28 29 29 31
10 11 11 16 22 24 26 27 29 29 26 23 23 24 26 26 24 20 18 17 19 18 17 18 19 16 16 17 17 17 15 14 13 12 11 13 14 17 20 23 25 26 27 26 27 27 27 28 28 29 30 31 32 33
9 7 8 14 17 18 17 16 14 20 18 21 21 21 23 22 21 21 20 19 16 16 18 18 20 21 20 17 16 15 14 13 12 12 11 12 15 19 22 24 25 26 26 27 27 27 28 28 30 31 32 34 34 34
10 9 8 9 10 12 10 11 14 16 17 16 16 18 18 19 19 18 16 16 15 15 18 20 22 21 19 17 16 14 13 12 12 11 12 15 18 21 23 24 25 26 26 26 27 28 28 30 32 33 32 32 33 33
14 12 12 11 10 12 13 13 12 14 15 15 15 17 18 20 20 17 16 16 16 16 17 19 17 15 16 16 15 13 12 11 10 11 13 16 19 21 23 24 25 25 25 27 28 29 31 32 32 31 32 32 32 34
15 14 13 12 11 10 10 11 12 13 13 13 14 16 19 18 19 19 16 15 14 10 11 14 17 17 15 14 13 11 10 9 10 11 14 17 20 21 22 23 23 24 26 27 29 31 31 30 30 30 30 32 34 34

GFSWCAN_700_spd_108.txt.gz
Wind_Speed
22 22 23 22 24 28 27 28 28 27 27 27 25 24 23 21 19 16 13 13 14 14 10 10 9 6 5 4 7 9 3 5 3 4 4 3 2 8 6 13 7 15 7 9 6 5 3 14 4 5 9 7 5 5
24 22 25 25 25 25 24 24 26 26 23 24 25 24 22 20 17 14 12 10 11 11 8 8 8 7 5 5 4 6 3 5 6 5 4 2 7 5 10 4 9 8 11 7 6 7 7 9 13 10 8 6 4 5
21 21 17 22 25 24 23 23 25 27 27 25 24 23 21 18 15 13 11 10 10 10 7 7 6 6 6 3 2 1 2 3 6 4 3 3 4 7 7 8 7 6 8 5 4 6 6 7 7 7 6 3 3 5
24 22 21 23 21 21 19 20 23 24 24 24 23 21 20 17 15 14 12 10 11 9 8 8 6 6 7 5 2 1 2 4 5 4 2 2 3 5 6 6 6 5 4 6 7 5 6 5 5 4 3 3 4 6
25 27 23 21 18 17 17 20 21 21 21 21 21 20 19 17 15 14 13 11 10 10 12 11 7 5 2 3 4 3 3 5 5 4 4 1 2 3 5 1 4 5 4 3 3 6 5 4 3 2 3 3 3 4
25 26 24 19 19 17 18 17 18 20 21 21 21 20 18 17 16 16 14 11 9 10 11 9 10 6 5 6 3 6 9 8 6 4 4 3 3 1 2 3 6 6 6 5 4 4 3 2 2 2 3 4 6 8
21 23 24 23 19 17 15 14 15 18 19 21 21 20 18 17 16 16 14 11 10 11 11 10 6 5 6 4 4 7 6 4 4 3 2 2 5 2 1 2 3 1 2 2 2 2 1 2 5 6 7 6 6 10
22 22 19 20 21 17 15 14 13 17 18 19 20 19 17 16 15 13 11 11 10 12 10 5 8 6 3 3 3 1 1 1 2 2 1 3 6 4 3 5 3 1 2 2 2 1 4 7 9 11 12 12 11 11
22 21 20 20 20 22 19 14 13 17 17 18 18 18 16 15 15 13 14 11 12 11 7 6 9 5 2 2 3 0 1 1 2 2 5 6 6 4 4 3 1 2 1 4 7 9 11 10 9 10 12 13 13 13
26 24 22 22 21 19 17 17 18 18 18 19 19 16 15 16 16 14 12 10 10 10 7 5 8 6 1 1 3 0 2 2 2 2 6 5 7 7 7 8 8 8 9 10 11 10 6 5 7 10 11 13 14 14
27 25 24 24 21 18 16 18 20 21 19 20 19 15 17 17 15 13 8 8 7 4 5 8 8 8 4 3 2 2 1 1 1 3 4 3 6 8 7 9 9 9 9 9 7 6 6 7 9 11 12 11 8 9
29 25 26 24 20 18 18 18 20 19 20 23 19 16 19 16 8 5 8 5 5 6 5 7 5 7 11 6 5 4 2 2 2 6 3 4 5 2 2 3 5 3 2 3 4 5 7 8 7 5 6 8 10 12
28 25 23 21 20 18 15 14 20 23 27 29 21 17 14 8 7 9 10 10 7 4 5 7 6 8 11 10 4 4 3 3 3 4 3 3 2 1 2 2 1 1 2 5 7 6 4 4 6 9 10 12 14 15
30 26 24 22 18 16 15 17 25 27 33 28 14 14 9 7 8 8 14 11 8 8 4 5 7 8 8 11 5 3 5 4 3 4 3 2 2 1 1 1 1 3 6 5 4 4 6 8 10 12 14 15 16 17
32 27 24 20 18 18 17 25 27 29 32 17 8 8 9 8 12 13 8 11 11 10 9 7 10 10 12 6 5 4 5 3 4 4 4 2 1 3 2 2 3 4 2 3 4 7 9 12 13 14 15 16 16 17
35 29 25 23 22 20 21 28 25 26 28 13 7 8 13 14 12 14 9 8 12 11 11 10 8 6 9 5 5 4 4 3 2 3 2 3 3 3 2 3 2 1 2 5 8 9 10 12 13 15 16 17 19 21
38 36 30 27 24 20 20 25 26 26 18 12 7 6 9 18 14 15 12 11 14 13 15 7 5 5 5 5 6 7 5 6 2 3 2 4 4 4 3 2 1 2 4 6 7 9 12 14 16 18 20 21 22 22
32 31 31 30 27 24 21 22 27 20 19 19 8 5 7 14 14 15 15 16 16 17 13 8 5 8 5 5 7 5 5 4 3 3 5 5 5 2 3 1 1 3 5 7 10 12 15 17 18 19 21 24 24 24
34 31 27 22 18 18 20 23 23 10 27 21 14 8 13 13 17 18 16 15 15 14 14 10 5 8 8 3 3 3 3 4 5 6 6 6 3 3 2 1 3 5 7 9 12 14 17 19 21 23 25 26 28 29
25 23 22 21 21 22 12 17 17 11 27 32 19 6 15 14 17 17 16 15 15 14 14 13 11 4 3 3 5 6 5 3 3 6 6 4 4 4 4 4 5 7 9 12 14 16 18 20 22 25 27 28 28 28
28 27 23 20 26 19 6 18 14 11 15 27 27 16 15 13 13 13 13 12 14 16 15 11 9 7 9 8 6 5 5 6 8 7 6 6 6 6 5 6 7 9 11 13 16 19 22 23 25 26 28 28 29 28
30 27 28 29 23 10 10 21 12 11 13 18 18 15 17 15 13 12 12 12 14 15 13 11 7 8 8 9 10 11 11 11 10 7 7 8 8 7 7 7 9 11 13 15 18 21 23 25 27 29 30 30 29 29
29 33 35 30 9 8 10 22 16 11 11 10 10 12 15 14 13 11 12 17 19 13 10 10 10 8 9 10 11 11 10 8 9 8 9 10 9 9 9 10 11 13 16 18 21 23 24 26 27 28 28 28 28 27
32 30 27 20 8 5 16 18 21 15 14 12 8 7 8 9 9 13 14 13 15 13 13 11 11 12 13 14 13 12 9 10 9 9 10 10 10 10 11 11 13 15 18 21 23 25 26 27 28 28 28 28 28 28
23 19 9 11 8 11 17 23 24 21 16 15 15 15 14 10 10 14 16 13 10 9 13 14 14 12 12 13 12 10 10 10 10 11 11 12 11 11 11 12 15 18 20 23 25 26 27 28 29 29 29 28 28 28
19 9 11 8 14 12 16 21 26 27 28 24 21 20 19 18 19 15 22 16 8 8 11 14 17 18 17 15 13 12 10 11 12 12 12 13 13 12 12 13 15 18 21 24 26 27 28 28 28 28 27 28 29 29
16 9 19 20 18 20 15 17 18 22 26 26 24 22 19 13 15 24 24 19 15 14 14 13 14 18 18 15 12 12 12 14 15 16 15 14 13 13 13 14 16 20 23 24 26 27 27 28 27 27 28 29 30 32
14 22 19 16 24 22 24 23 19 18 18 18 19 20 12 14 21 20 16 13 11 12 13 14 16 15 16 16 16 16 16 16 16 15 14 14 14 14 14 16 19 22 24 26 26 27 27 28 28 29 29 30 32 34
14 13 15 20 25 28 28 28 29 29 26 23 23 22 23 21 20 19 16 14 13 13 14 16 16 15 16 17 17 16 15 16 16 12 13 14 13 14 15 17 21 23 25 26 27 26 27 29 29 30 31 32 32 33
31 21 15 14 22 29 29 27 27 26 26 24 24 23 23 22 21 20 19 17 16 16 17 15 15 14 15 16 15 15 16 16 13 13 14 13 13 14 16 19 21 23 25 25 25 26 27 28 30 32 32 31 31 31
36 37 24 14 14 17 19 16 16 17 16 18 19 19 20 21 19 18 18 18 16 15 16 16 16 17 18 18 17 17 16 13 12 12 12 12 13 14 17 20 22 24 24 24 25 26 28 29 29 29 29 30 30 31
18 18 14 13 9 10 13 16 14 13 15 16 18 18 17 18 19 16 16 16 17 17 16 15 15 15 17 18 16 15 13 11 11 11 11 11 13 16 18 21 22 23 23 25 26 28 29 29 28 29 28 28 31 32
19 16 15 15 14 12 10 12 12 14 14 15 17 18 18 18 21 21 17 17 16 15 14 12 13 16 17 16 15 12 9 10 10 10 10 12 15 17 19 20 21 23 24 25 27 28 28 27 27 26 27 29 30 31

GFSWCAN_700_spd_111.txt.gz
Wind_Speed
22 23 27 25 28 32 35 33 32 29 33 32 31 30 27 24 22 20 18 19 20 18 13 14 10 8 6 4 3 5 4 2 1 2 2 2 1 4 2 8 4 10 6 5 4 4 2 7 9 3 11 8 5 6
25 25 26 27 28 28 29 30 31 30 32 32 30 28 26 22 20 18 17 18 18 17 11 12 12 11 8 4 2 2 2 4 4 3 2 1 1 3 4 3 9 4 7 5 4 6 8 11 11 10 9 6 5 5
25 25 27 26 29 28 27 25 27 29 31 29 27 26 21 20 19 18 17 17 17 16 12 11 11 10 8 5 1 1 3 4 4 2 1 2 2 3 4 5 4 5 6 4 3 7 7 8 10 8 5 3 4 6
19 23 28 29 28 28 28 26 25 25 28 28 25 25 24 22 20 18 17 17 16 16 11 12 9 8 7 5 2 4 2 2 2 1 1 2 4 1 2 1 2 3 1 5 6 6 7 7 6 5 5 4 5 5
20 18 27 30 31 29 27 27 27 27 26 27 27 26 23 21 20 19 17 17 15 14 13 14 12 10 8 7 6 3 1 2 2 1 1 2 2 3 2 2 2 3 3 3 3 4 6 6 5 3 4 5 5 6
22 24 25 27 29 26 26 26 26 27 28 27 26 25 23 21 20 19 17 16 15 12 17 14 12 11 8 9 6 4 6 7 5 3 3 4 5 2 1 3 5 5 5 5 5 4 4 4 4 4 3 4 5 8
27 26 24 23 26 25 23 20 21 24 25 25 25 23 22 21 20 18 15 16 15 16 15 10 11 10 10 8 6 5 6 3 5 4 4 4 7 4 4 3 5 3 3 3 3 3 4 2 3 4 4 6 9 11
27 27 24 24 22 23 20 20 22 23 25 24 24 22 20 19 17 15 13 14 14 16 15 7 9 10 8 6 3 1 0 1 3 5 4 5 8 7 4 5 3 3 3 3 3 1 2 5 8 8 7 8 9 10
28 28 25 23 21 18 18 17 20 21 23 23 23 21 18 17 17 14 13 13 15 13 9 10 13 8 6 5 5 2 2 1 2 3 6 6 7 6 6 5 5 3 1 1 4 7 8 9 7 8 8 10 11 11
29 29 27 23 19 16 16 14 19 21 22 22 21 20 19 19 16 14 11 10 12 10 7 13 11 9 6 5 5 3 2 3 3 3 5 6 11 9 9 5 3 4 5 4 5 6 6 6 7 9 11 12 13 12
23 24 22 19 19 18 15 14 18 20 22 23 23 20 20 19 16 13 8 8 7 6 8 12 10 7 5 4 3 2 1 2 1 2 4 3 4 7 8 6 6 6 7 8 6 4 4 6 8 10 10 8 8 10
23 19 19 21 19 17 16 18 18 19 22 23 20 19 22 16 7 5 8 6 6 6 9 12 11 9 8 6 4 3 3 2 1 4 3 4 3 5 5 5 4 5 4 3 2 4 6 7 6 5 7 10 12 14
24 23 23 22 19 15 15 19 21 22 22 21 23 21 13 6 6 8 10 8 6 9 11 12 9 8 11 9 3 3 2 3 2 4 4 3 5 4 3 3 3 3 2 3 5 4 2 2 5 8 10 12 14 16
25 24 24 22 19 18 17 20 25 29 28 22 11 12 6 6 8 6 11 9 9 8 11 9 8 8 9 11 4 3 4 4 4 4 3 4 4 3 3 4 4 3 3 3 1 1 3 6 9 12 14 15 17 18
27 26 24 22 19 18 17 21 28 34 27 11 8 6 8 9 11 11 10 12 9 8 7 6 8 7 9 5 5 4 4 4 5 4 6 3 3 3 3 3 4 4 2 2 1 3 6 8 10 12 13 15 17 19
29 28 26 22 19 17 18 25 29 34 22 10 6 9 13 11 10 11 9 14 12 11 10 9 7 4 7 4 5 5 4 5 3 6 4 3 3 4 4 5 5 4 3 1 2 5 7 8 10 13 16 18 20 22
31 28 26 22 19 17 23 25 24 28 18 7 9 9 10 12 9 10 11 12 13 11 13 7 6 5 4 6 6 7 5 7 7 3 4 3 4 5 6 5 5 4 2 2 4 6 8 10 13 16 19 21 23 25
30 26 23 22 21 20 23 24 20 15 16 13 9 6 5 11 12 12 13 13 14 14 14 9 5 7 4 5 9 5 8 8 5 4 4 5 5 5 6 6 5 3 3 4 6 8 10 13 16 19 21 23 25 26
29 25 21 18 17 15 19 23 22 8 19 20 10 4 6 8 10 16 14 16 16 16 15 9 5 7 8 3 4 5 5 5 5 6 7 6 6 7 7 6 4 4 4 6 8 10 12 15 18 21 24 26 28 29
26 23 21 21 19 17 14 8 22 9 16 27 16 10 7 9 10 16 17 16 17 19 16 14 13 6 2 6 6 6 6 5 5 4 5 6 7 8 8 6 6 5 6 8 10 13 15 18 21 24 26 28 31 32
28 26 23 21 18 14 5 8 18 14 14 24 27 18 12 11 10 14 18 16 16 17 15 11 8 6 8 8 6 4 5 5 6 7 8 7 8 9 8 7 7 8 9 10 12 14 18 20 24 27 28 30 32 32
31 26 22 20 19 18 5 12 15 8 10 13 22 25 12 10 12 12 14 15 16 12 8 9 11 10 10 9 9 9 9 10 10 9 7 7 8 10 10 9 9 10 11 13 15 17 20 23 26 29 30 31 32 32
24 23 22 23 20 8 6 16 13 11 8 11 12 15 13 16 12 11 11 13 14 12 11 9 10 10 7 6 8 9 9 9 9 9 9 9 10 11 11 12 11 12 13 15 17 19 23 26 29 30 32 32 32 32
22 24 23 19 6 4 12 19 16 10 12 12 10 10 14 17 12 12 14 13 8 12 13 12 12 11 10 11 12 11 11 11 10 10 10 10 11 13 14 13 13 14 15 17 19 21 25 27 29 30 31 31 31 31
23 18 15 13 5 5 11 19 19 14 13 16 8 4 4 6 6 8 10 9 8 9 9 13 14 14 13 12 12 11 11 12 12 13 12 12 13 14 14 15 15 16 17 19 21 24 26 28 30 31 31 31 31 31
17 6 8 7 10 7 9 16 21 21 17 15 12 11 10 11 12 11 15 10 10 8 8 10 14 17 18 17 15 14 15 16 16 15 15 15 15 15 15 15 16 17 18 20 23 25 27 29 30 31 31 32 31 31
16 7 14 15 9 11 11 13 17 20 22 21 21 21 20 15 15 19 20 17 15 12 13 13 13 13 14 16 19 18 17 18 18 17 16 16 14 13 15 15 16 17 19 22 24 26 28 29 29 30 31 32 33 34
17 24 14 10 21 18 15 16 14 16 21 24 26 24 18 18 21 18 15 14 11 11 12 13 13 13 15 17 18 19 20 19 18 17 17 15 13 13 15 15 16 18 20 23 25 27 28 28 29 30 31 33 33 33
21 19 12 14 17 20 24 24 21 21 18 17 18 16 18 20 20 18 16 15 13 12 13 13 14 15 16 16 18 19 18 18 18 18 17 15 13 13 14 15 16 19 22 24 26 27 27 29 29 31 32 31 31 31
29 22 19 15 13 17 25 26 26 25 24 26 27 26 25 23 22 22 20 18 17 17 17 18 18 17 15 15 16 16 17 16 15 15 14 11 11 12 14 15 17 20 22 25 26 27 28 29 31 31 31 31 30 30
19 26 32 33 34 31 28 25 28 25 23 23 24 26 27 28 25 22 21 20 20 19 18 16 14 14 14 15 16 18 16 15 14 13 11 10 11 12 13 15 18 20 23 24 25 27 28 29 29 28 28 27 27 29
25 23 20 19 21 19 16 16 21 23 20 20 21 21 19 19 20 20 18 19 18 16 16 16 15 15 15 16 16 15 14 13 12 9 9 10 11 12 14 17 19 21 22 24 25 27 28 27 27 26 25 25 27 29
22 25 24 18 15 14 11 10 12 16 17 17 18 17 18 19 22 21 18 17 17 18 18 17 16 15 14 14 14 13 11 11 8 8 8 9 10 12 15 18 20 21 23 24 25 26 26 25 24 24 24 25 27 29

GFSWCAN_700_spd_114.txt.gz
Wind_Speed
14 10 12 19 27 32 37 40 41 42 41 39 31 30 34 31 29 26 23 22 21 19 19 19 14 9 8 7 7 4 4 3 3 5 4 4 3 2 2 5 3 8 4 6 4 4 2 1 9 2 8 7 4 5
21 18 16 23 25 30 33 38 38 45 38 29 33 35 30 30 24 23 22 21 19 20 17 18 14 10 7 6 3 2 3 4 4 4 3 3 3 2 3 3 8 4 6 4 2 4 8 8 5 11 8 5 5 6
24 23 21 22 23 25 29 34 30 32 32 33 34 30 31 24 21 21 21 20 20 20 15 15 14 11 8 6 4 3 6 6 5 4 3 3 3 3 3 4 3 4 5 2 3 7 7 10 10 9 6 4 5 5
25 24 25 25 25 28 32 29 32 34 34 33 32 32 27 24 22 21 20 20 21 22 13 17 13 11 9 7 5 5 6 4 3 2 2 3 5 1 2 1 1 2 2 2 5 7 7 7 7 7 5 3 3 3
22 25 29 26 25 27 28 29 31 31 32 33 31 29 26 20 20 20 19 19 19 19 16 19 15 13 12 9 6 6 4 3 2 2 3 4 2 2 1 2 2 2 4 3 3 7 5 6 5 5 3 1 1 3
26 31 29 28 25 24 27 28 30 32 32 29 27 24 25 20 20 20 19 19 19 13 21 20 16 14 10 8 8 5 4 4 3 4 4 4 5 4 2 2 3 3 3 4 4 6 6 5 3 1 2 4 6 8
31 32 29 27 29 30 27 27 28 29 28 25 26 27 22 22 21 20 18 20 20 16 19 17 14 13 11 10 7 4 4 4 5 5 5 5 7 6 4 3 5 5 4 3 4 5 5 4 0 3 4 6 8 9
26 25 26 29 26 25 27 26 26 27 28 26 24 23 22 21 20 16 15 19 19 20 16 9 11 14 12 9 5 3 1 2 4 5 4 5 7 8 4 7 7 6 6 6 4 4 2 3 5 4 4 4 6 8
26 25 26 29 27 23 24 25 25 26 26 24 23 22 20 19 19 15 16 18 19 15 9 9 15 11 10 7 7 4 2 1 2 4 5 5 8 7 7 6 4 4 4 3 4 5 6 7 6 5 6 8 10 11
26 26 26 25 24 21 22 22 22 22 23 23 23 22 21 19 17 16 16 16 17 11 9 11 13 11 10 10 7 3 2 3 3 2 3 6 9 12 6 7 6 5 5 5 4 5 5 5 4 6 8 10 10 9
25 23 21 23 21 19 18 21 22 24 24 25 25 22 22 20 18 11 10 8 9 8 10 15 12 12 9 8 8 4 3 3 2 1 2 3 3 7 8 8 8 8 6 5 4 2 2 3 5 7 6 6 9 11
25 23 19 19 18 15 14 18 20 22 24 24 22 22 22 15 7 5 9 8 7 7 14 17 13 11 9 8 4 4 3 2 1 2 3 4 4 6 8 7 5 4 4 2 1 2 4 4 3 4 7 9 12 14
25 22 20 18 18 15 15 18 20 20 21 20 26 21 14 5 5 6 7 8 7 13 18 18 14 11 10 7 4 3 3 2 2 2 4 3 5 6 5 5 6 5 4 3 3 2 1 1 4 7 9 12 14 16
19 21 20 18 18 17 16 19 21 23 25 28 11 11 5 5 5 7 13 13 13 14 15 16 12 9 10 10 4 3 4 3 3 4 3 5 5 5 4 5 5 4 3 3 2 3 0 2 5 8 10 12 14 16
21 22 20 18 17 16 16 21 23 26 24 11 8 5 6 7 13 15 16 15 14 15 14 12 10 7 10 5 5 3 3 4 4 3 5 5 3 3 3 4 5 5 4 5 4 3 2 4 6 8 11 14 17 20
24 24 21 19 17 15 14 21 27 24 14 6 5 10 11 11 12 14 16 13 12 12 13 10 7 5 6 4 5 6 4 4 3 5 7 4 3 3 3 4 5 5 6 6 4 3 3 6 8 10 13 16 19 21
25 24 23 20 17 15 16 21 29 21 5 6 9 9 9 10 10 11 11 16 14 13 12 6 6 4 3 4 5 5 4 3 7 6 5 4 3 4 5 6 6 7 7 6 4 4 6 7 10 13 16 18 22 24
25 22 18 14 12 12 16 19 24 12 9 11 9 6 6 8 9 14 13 12 14 14 13 6 3 5 3 3 5 7 6 7 7 4 4 4 6 7 7 7 8 8 8 6 6 6 8 10 12 15 18 21 24 27
21 19 17 14 11 12 17 16 20 8 17 12 9 8 6 6 7 12 11 13 16 13 14 9 4 4 5 4 4 6 7 8 7 6 7 8 8 9 8 10 10 9 8 8 8 9 10 12 15 18 21 24 27 30
20 17 16 15 12 12 11 6 16 9 18 17 8 6 7 1 5 11 14 15 16 15 15 14 11 7 5 5 7 6 6 7 8 7 7 7 8 9 10 11 10 10 10 10 10 11 13 15 18 21 24 27 29 32
21 18 18 17 13 9 4 3 9 10 11 20 24 14 7 6 5 7 13 16 17 18 16 12 9 7 5 6 6 5 6 6 7 7 8 9 10 9 10 11 11 12 12 12 13 14 16 18 20 23 26 29 32 34
22 18 16 14 11 9 1 5 12 7 12 12 18 23 21 15 12 9 11 14 14 9 7 6 7 8 10 10 9 9 9 10 11 11 11 10 9 10 12 14 14 14 14 14 15 16 18 20 23 26 28 31 34 35
21 19 15 14 10 9 3 5 11 6 5 8 10 14 17 19 14 8 7 11 8 4 6 7 8 9 11 9 8 8 9 10 11 11 10 11 11 11 12 14 15 16 15 16 17 19 20 23 25 28 31 33 35 35
18 19 15 11 9 2 6 9 12 8 7 12 11 8 10 14 14 8 8 8 6 5 7 10 12 11 10 11 11 12 12 12 12 13 12 12 12 13 14 15 16 16 17 18 19 20 22 24 28 30 33 34 35 34
18 12 8 10 5 3 5 12 16 7 10 11 8 5 7 12 12 10 9 8 7 9 9 9 10 13 14 14 14 14 14 14 14 14 15 15 15 15 15 16 16 17 18 19 20 21 23 26 29 32 33 33 33 34
11 5 8 5 9 3 4 8 16 15 7 9 9 5 4 5 7 5 7 5 6 8 10 8 9 11 14 16 18 19 19 18 18 18 18 17 18 18 17 16 17 17 18 19 20 22 25 28 31 32 32 33 33 34
12 5 13 10 7 9 8 8 12 15 15 11 13 12 9 4 3 5 5 6 8 10 12 13 13 14 15 15 16 18 20 21 21 21 20 20 19 18 18 17 16 18 18 19 20 23 26 29 31 31 32 33 34 34
18 18 9 8 13 12 10 9 9 10 14 16 17 15 8 7 8 9 9 7 9 10 11 12 14 15 16 16 16 17 19 20 21 22 21 20 19 18 18 16 15 17 18 19 22 25 27 29 30 31 32 33 33 32
22 19 16 17 18 14 16 17 17 16 15 14 16 17 18 19 15 11 14 16 13 13 13 14 16 17 16 16 17 18 19 20 20 19 19 18 17 17 16 14 15 16 17 20 23 26 28 28 30 31 31 31 30 30
25 27 25 19 17 11 9 10 11 13 17 20 20 20 20 20 21 21 19 17 18 18 17 17 18 18 19 19 20 19 18 18 18 17 16 15 14 13 12 13 15 16 19 22 24 25 26 28 29 29 29 28 28 28
18 19 21 23 24 23 23 24 23 22 19 21 22 23 23 23 23 24 24 24 23 21 20 20 21 20 20 19 17 17 18 17 17 15 14 13 12 9 11 13 14 17 20 22 24 25 27 28 28 28 27 27 26 27
20 21 20 21 20 18 16 14 15 16 16 19 22 22 22 22 24 26 23 23 21 21 21 21 21 21 19 18 19 17 15 15 13 11 11 10 8 9 10 12 15 18 20 22 23 25 26 26 26 25 25 24 24 26
14 15 18 21 21 19 14 11 10 11 12 14 17 19 20 22 25 25 19 18 19 19 19 19 18 17 17 17 15 14 13 11 10 10 8 7 7 8 11 13 16 18 20 21 23 24 24 24 23 23 22 22 24 25

GFSWCAN_700_spd_117.txt.gz
Wind_Speed
8 8 13 17 16 18 28 34 42 47 51 51 53 50 44 43 36 30 27 28 25 24 31 26 22 18 17 16 13 11 9 8 7 9 7 6 5 5 5 2 3 2 1 2 1 1 2 1 13 7 8 8 5 7
10 10 21 23 22 23 37 41 50 49 42 41 45 42 37 31 31 33 30 26 22 20 30 26 21 16 13 11 10 9 7 9 10 9 8 6 6 6 4 4 3 1 2 1 2 3 3 6 8 14 10 7 6 7
16 18 21 23 28 43 42 36 42 47 42 39 33 29 31 32 31 27 23 23 24 20 29 25 19 15 12 11 8 6 9 9 10 10 9 8 6 8 5 3 4 2 2 1 2 3 7 8 10 10 8 7 6 6
19 22 22 22 26 31 43 43 37 42 35 30 32 33 31 30 26 24 22 23 23 26 25 23 17 14 12 10 8 9 10 9 9 8 8 7 9 8 6 4 4 4 4 2 4 5 6 6 6 6 6 5 4 4
22 24 25 22 23 32 35 38 41 33 33 36 33 31 30 25 25 24 22 23 21 20 26 25 19 16 14 11 9 10 9 7 7 7 7 8 8 6 6 5 4 5 5 4 4 6 4 6 6 4 2 2 2 3
25 25 24 23 28 30 31 34 34 33 37 34 32 31 25 22 21 21 24 22 19 13 25 27 20 17 14 11 10 8 7 6 6 7 6 7 7 6 5 5 5 5 5 4 4 6 7 6 5 2 0 1 3 6
28 26 22 22 31 30 32 33 34 34 34 34 30 27 24 22 20 21 23 25 22 14 24 24 17 17 14 12 10 7 5 4 5 6 6 6 7 7 5 5 7 5 3 4 5 6 7 5 2 2 4 5 6 7
29 26 23 20 29 29 31 31 31 33 32 28 28 27 22 16 18 17 20 22 22 21 18 11 13 16 15 13 8 5 4 5 5 6 6 6 7 8 5 8 8 8 6 5 4 5 5 2 3 4 4 3 5 7
26 21 20 30 31 28 29 31 31 31 29 26 25 26 19 18 18 17 20 22 22 14 8 10 22 19 17 12 10 7 6 6 5 5 5 5 7 6 7 6 5 5 7 7 7 6 6 6 5 4 3 4 6 6
21 25 28 27 27 29 31 27 25 26 26 25 24 24 24 21 18 21 21 21 19 10 7 16 17 17 16 14 11 7 5 5 4 3 3 5 8 10 5 6 8 8 7 6 6 7 7 6 4 3 3 3 3 5
26 27 28 26 24 24 24 26 26 25 23 23 25 24 25 23 23 16 13 9 9 8 11 18 14 18 16 12 11 5 5 5 3 3 2 2 2 8 9 8 8 9 8 7 7 6 5 3 2 1 1 3 6 8
27 27 26 24 22 20 19 21 23 22 23 22 21 26 26 20 9 7 11 10 8 8 20 20 18 14 16 14 6 6 5 4 3 3 3 3 5 8 10 10 8 7 7 5 5 5 3 3 3 2 2 5 7 9
22 20 21 21 20 21 21 22 22 21 20 21 27 19 14 5 5 7 7 9 9 20 25 23 19 15 14 7 6 4 3 3 4 4 3 2 4 6 6 6 5 5 5 6 5 4 4 5 2 1 3 6 8 11
18 18 15 17 19 21 22 24 25 25 25 27 12 8 5 5 5 9 14 16 19 22 23 19 14 9 9 8 5 4 5 4 4 4 2 4 6 6 6 5 5 6 6 5 5 6 5 3 1 1 4 6 9 11
17 17 17 18 18 19 21 24 26 27 24 11 7 5 6 11 19 20 18 18 20 21 20 17 12 6 10 5 4 4 4 4 4 3 5 6 6 5 4 4 6 7 6 5 7 6 5 3 1 3 6 8 11 13
21 19 17 14 15 16 19 24 25 23 12 7 6 13 16 18 20 20 19 19 21 21 19 15 9 6 5 4 5 4 3 4 3 6 8 6 4 4 3 4 6 7 6 8 7 5 4 4 4 6 8 11 13 16
20 18 16 13 12 13 18 23 21 14 5 7 11 13 16 16 18 19 18 19 19 18 15 8 5 4 5 3 4 4 3 3 4 7 7 5 5 3 4 5 6 7 8 8 7 7 6 6 7 8 11 14 17 20
16 16 13 10 9 10 17 24 19 8 12 14 11 12 13 14 17 13 16 15 15 16 12 7 6 6 3 2 3 6 4 4 8 6 4 4 4 5 5 6 7 9 9 9 8 8 8 9 10 11 14 16 19 22
15 15 13 11 9 10 18 20 15 14 15 12 12 12 11 11 16 13 12 13 11 12 11 8 3 3 2 4 3 3 4 6 7 6 5 5 6 6 7 7 9 10 10 10 10 11 11 12 13 14 17 19 22 25
18 15 13 10 10 10 9 13 16 15 16 16 16 15 12 9 8 13 14 12 12 9 9 8 7 3 2 2 5 4 4 5 6 6 7 6 6 7 9 9 11 12 12 12 13 13 13 14 15 17 19 22 25 28
18 15 12 9 9 8 6 8 13 15 17 13 12 9 9 10 8 4 13 14 13 15 12 10 9 8 5 3 4 3 4 6 6 6 7 7 9 9 9 9 11 13 14 14 15 15 15 16 18 19 22 25 28 31
13 12 11 8 6 7 6 7 9 11 14 15 19 15 10 4 2 6 3 9 11 10 6 6 6 6 7 8 8 8 8 8 9 10 11 11 10 10 10 11 13 15 15 16 16 17 18 19 20 21 24 27 30 33
10 11 9 5 2 2 4 5 9 6 5 10 11 11 14 14 11 6 3 6 7 5 6 4 5 7 9 10 9 8 8 8 9 10 10 10 10 10 10 11 13 14 16 17 18 19 19 20 21 23 26 28 32 34
13 11 7 2 3 2 3 2 8 4 2 5 11 9 9 9 8 6 6 7 6 5 4 5 7 10 10 10 11 10 8 9 10 11 12 12 12 12 12 13 14 15 17 18 19 20 21 21 23 25 27 30 33 35
13 8 2 4 3 3 4 1 8 4 3 8 8 5 7 8 9 10 7 4 4 6 8 7 8 9 10 11 12 12 12 12 13 13 13 14 14 15 15 15 15 16 17 18 19 21 21 22 23 26 29 32 34 34
8 3 4 5 4 1 2 2 7 9 2 6 7 4 6 8 9 6 9 6 5 4 6 9 8 7 7 9 12 14 16 16 17 17 17 17 17 17 16 16 17 18 18 19 20 21 21 22 24 27 30 32 33 33
8 4 9 7 4 4 3 3 4 8 8 2 1 4 3 3 5 7 7 5 3 5 7 10 12 12 12 13 14 15 15 16 17 18 19 19 18 17 17 18 19 19 19 18 18 20 21 23 26 28 30 31 32 32
12 13 6 11 9 6 4 3 3 4 8 9 9 6 4 3 4 5 4 6 6 8 10 12 12 11 13 14 14 14 15 17 18 19 19 18 17 18 18 18 18 17 15 15 17 19 21 24 26 28 29 30 30 29
14 16 14 8 7 9 11 11 11 10 9 9 9 9 14 14 14 14 13 11 11 12 13 13 13 14 14 14 14 15 17 19 19 18 18 17 17 17 17 17 15 13 13 16 18 20 22 25 26 28 28 28 27 27
10 16 17 17 18 17 13 7 4 5 6 9 13 16 15 14 13 14 16 17 17 16 16 16 17 17 17 17 18 18 18 17 18 17 16 16 15 15 14 13 11 11 14 16 18 21 23 25 26 26 26 25 25 25
10 12 17 20 21 16 17 18 18 18 18 19 18 20 20 21 20 21 22 22 22 22 21 21 22 21 20 19 18 18 17 16 15 15 14 13 13 12 11 9 9 12 14 17 19 21 23 24 24 25 24 24 23 23
13 15 16 17 16 15 16 15 16 16 16 18 21 22 23 24 24 24 22 23 23 23 23 22 21 20 18 17 17 16 16 15 14 13 11 10 9 8 7 9 11 13 16 18 20 21 22 23 24 23 23 22 22 22
11 10 10 12 14 14 13 14 14 14 13 12 13 15 17 19 22 23 20 18 19 18 17 16 16 16 15 15 16 16 15 13 12 9 8 7 6 6 7 9 12 15 17 18 19 21 22 23 22 21 21 20 20 21

GFSWCAN_700_spd_123.txt.gz
Wind_Speed
22 20 19 15 12 12 25 23 6 11 22 24 39 49 52 75 85 75 69 66 61 40 34 43 47 47 37 33 32 32 30 27 25 16 16 12 9 12 8 8 12 13 10 10 11 11 13 10 10 14 11 10 12 10
21 18 13 5 13 27 31 26 14 21 29 37 47 59 67 73 72 69 65 63 53 42 42 45 40 38 29 29 30 28 27 25 21 15 12 10 9 10 12 11 11 9 10 7 7 7 9 9 15 23 12 12 13 10
21 16 9 10 22 31 36 37 28 27 35 42 47 55 70 78 70 59 47 49 52 39 43 35 35 33 30 31 28 24 28 25 27 27 13 10 10 9 12 9 13 13 11 9 6 10 11 10 14 17 15 15 13 11
18 11 19 21 29 35 36 35 43 50 54 56 57 57 59 47 47 45 43 31 29 50 42 34 30 31 28 26 24 24 23 18 21 19 14 9 9 16 11 7 9 10 8 7 12 11 9 10 12 13 14 14 12 10
17 30 25 25 34 41 43 41 39 42 46 48 50 44 44 44 47 41 37 41 39 26 39 38 30 27 25 23 20 19 19 17 17 18 14 10 12 11 15 11 9 13 11 8 7 6 11 10 11 12 12 12 11 9
27 33 31 28 40 40 42 34 37 47 48 48 48 45 43 38 34 33 39 42 38 21 42 28 26 22 21 19 17 17 19 20 19 10 11 10 14 8 9 9 15 10 10 10 8 7 8 10 11 10 10 10 8 6
32 42 35 39 42 50 52 54 51 47 44 43 45 42 39 35 37 33 35 36 33 27 38 23 19 23 21 18 17 17 16 18 11 9 7 6 11 7 7 7 12 10 11 9 6 6 10 10 9 9 7 7 6 5
30 41 44 48 49 45 43 42 40 39 39 42 44 40 34 32 31 29 31 27 16 29 30 14 16 21 21 18 16 17 15 13 12 8 10 8 8 7 5 11 9 11 10 9 8 7 9 11 9 5 5 5 5 3
29 40 41 40 41 41 41 43 43 42 38 35 33 31 29 30 28 31 27 28 22 15 13 15 23 19 23 16 17 14 11 7 12 7 7 8 8 6 8 9 12 13 11 9 8 10 9 8 6 4 5 5 4 4
28 34 40 37 37 39 38 38 36 32 30 32 33 33 28 27 31 29 25 21 18 12 10 22 19 22 21 19 14 11 9 6 5 6 8 6 9 12 8 11 13 14 12 11 10 10 9 7 7 7 6 5 5 4
33 38 39 42 36 37 34 33 32 28 30 32 33 31 30 32 32 17 15 9 8 7 12 19 15 26 20 13 17 9 7 6 4 5 6 4 6 11 12 13 13 13 12 12 10 9 8 7 7 7 6 6 4 2
29 32 33 34 33 31 30 30 26 29 29 24 29 32 34 17 9 6 10 9 7 7 17 20 21 22 23 18 7 7 5 6 5 8 5 3 9 11 15 13 13 13 12 9 8 8 8 7 8 7 7 6 4 3
30 29 32 31 31 32 28 28 28 23 22 27 32 20 13 6 5 7 7 9 9 20 27 26 26 24 21 10 7 5 5 4 7 5 3 6 9 13 15 13 13 12 10 10 8 8 9 8 8 9 8 7 5 4
26 27 30 32 32 32 29 23 22 21 24 22 17 12 6 5 5 9 14 15 17 27 26 26 25 18 14 8 5 4 5 6 3 4 5 8 11 11 12 13 12 10 10 10 9 9 8 9 10 9 8 7 6 6
24 24 24 25 26 27 29 27 25 26 23 17 12 8 5 6 11 16 16 16 27 28 26 24 16 17 12 5 4 4 6 4 5 5 9 10 10 10 10 10 10 9 10 10 10 9 9 11 11 10 9 8 8 9
21 23 25 27 26 24 26 28 27 21 16 12 7 12 12 14 19 20 20 28 33 30 26 17 11 8 5 3 4 4 5 3 6 8 10 11 11 10 9 8 8 9 10 11 10 10 11 11 11 11 10 11 12 12
17 21 23 24 23 22 22 22 21 14 8 9 16 18 16 18 20 23 26 30 30 27 22 12 5 5 6 3 4 4 6 6 7 9 11 11 9 8 6 6 7 9 10 10 10 12 12 12 12 12 12 13 14 15
11 17 20 22 23 22 24 20 12 10 21 20 18 17 16 17 21 24 30 29 25 21 17 7 6 7 5 4 3 6 8 6 6 9 12 9 7 7 6 5 6 8 10 11 12 13 13 13 13 14 15 16 17 18
13 14 17 22 24 20 21 15 21 17 19 18 18 16 16 17 20 22 23 22 19 16 13 8 5 4 4 6 5 7 7 5 8 9 9 7 7 6 5 6 7 8 10 12 14 14 14 14 15 15 17 18 20 21
12 11 14 19 22 22 17 17 21 15 17 18 18 16 15 16 17 18 19 19 15 13 9 4 5 7 5 4 5 4 6 7 9 9 7 7 6 6 5 6 7 9 10 12 14 15 15 15 16 17 18 20 21 23
12 11 13 17 20 15 15 14 15 17 18 16 16 16 14 14 14 14 15 14 13 10 7 7 8 6 3 3 4 4 4 6 7 7 7 6 6 6 7 8 9 9 10 12 14 15 16 17 17 19 20 21 22 24
12 12 13 13 16 14 13 15 18 18 17 20 19 17 15 13 11 11 11 12 12 12 10 9 8 8 6 5 4 5 5 5 6 6 6 7 8 9 9 9 9 9 10 12 14 14 17 18 18 20 21 22 23 24
9 10 11 13 9 7 14 16 20 18 16 18 17 15 13 10 8 8 8 11 10 10 10 10 8 8 8 8 8 8 8 8 9 8 7 7 8 9 9 10 10 11 12 13 14 16 17 18 20 20 21 22 23 24
8 7 8 6 6 8 14 12 13 15 13 15 13 12 11 8 6 7 8 8 11 13 11 10 8 6 6 7 8 8 9 9 9 7 7 8 9 10 11 12 12 13 14 14 16 16 18 19 20 20 21 22 23 25
5 6 7 7 7 8 9 10 9 7 7 10 13 14 12 9 9 7 9 10 13 13 13 11 8 5 5 6 7 9 10 11 10 10 10 12 12 13 13 14 14 15 16 17 18 18 19 20 20 20 21 21 22 25
4 4 4 6 8 7 6 9 7 7 8 7 8 7 9 12 9 5 12 12 13 13 12 11 10 9 8 7 7 8 9 10 11 12 13 14 14 14 15 15 16 17 18 19 19 20 20 20 20 18 18 21 24 26
3 4 4 7 7 6 6 5 7 6 5 4 6 6 7 5 6 6 12 12 12 10 9 9 9 10 10 11 10 10 10 11 12 13 14 14 14 15 16 16 16 17 18 19 20 20 19 17 16 16 19 22 24 26
2 2 3 4 4 3 2 3 4 6 6 4 6 6 4 4 5 6 10 14 11 9 8 7 6 7 7 8 8 8 10 11 11 13 14 15 16 16 16 16 16 17 17 18 17 16 14 13 15 18 21 23 24 25
5 6 7 7 8 9 4 2 2 3 6 8 8 9 7 7 6 7 8 8 8 9 9 9 9 9 9 9 9 10 10 12 13 15 15 16 16 16 15 15 15 15 15 14 12 11 12 14 17 20 21 22 23 24
9 8 10 10 8 9 10 6 6 7 9 11 12 14 15 14 14 14 14 14 15 15 15 14 13 13 13 13 14 14 15 15 16 16 17 16 15 15 14 14 13 12 11 9 9 11 14 16 18 20 21 22 23 23
7 9 11 13 14 12 11 13 13 11 12 13 14 17 19 19 21 21 21 22 23 23 21 19 18 18 19 19 19 18 17 17 17 16 15 14 13 13 12 11 10 8 6 8 10 13 15 17 18 20 21 22 21 21
9 9 9 10 12 10 13 14 16 18 18 19 20 20 21 23 26 25 24 25 25 26 25 25 24 22 21 21 20 19 17 16 15 14 13 12 11 11 10 8 5 5 7 10 12 14 16 17 19 20 20 20 20 19
5 5 6 8 10 10 9 12 15 17 17 18 19 19 21 22 26 28 26 25 25 25 25 25 24 23 21 19 19 18 16 16 15 13 11 10 9 8 6 3 4 7 10 11 13 15 17 18 19 19 19 19 18 18